Pine Ridge, SD

12:03 PM MDT on May 22, 2017 (GMT -0600)
Pine Ridge

Weather History for KIEN - March, 2013

Change the Weather History Date:

Monday, March 4, 2013

  Actual Average Record
Temperature  
Mean Temperature 30 °F 32 °F  
Max Temperature 37 °F 46 °F 72 °F (2009)
Min Temperature 22 °F 18 °F -10 °F (2015)
Degree Days  
Heating Degree Days 35 33  
Month to date heating degree days 105 134  
Since 1 July heating degree days 5206 5484  
Cooling Degree Days 0 0  
Month to date cooling degree days 0 0  
Year to date cooling degree days 0 0  
Moisture  
Dew Point 10 °F    
Average Humidity 53    
Maximum Humidity 78    
Minimum Humidity 27    
Precipitation  
Precipitation 0.00 in 0.02 in 0.30 in (2008)
Month to date precipitation 0.00 0.07  
Year to date precipitation 0.94 0.86  
Sea Level Pressure  
Sea Level Pressure 29.97 in    
Wind  
Wind Speed 16 mph (NW)    
Max Wind Speed 28 mph    
Max Gust Speed 45 mph    
Visibility 9 miles    
Events      
T = Trace of Precipitation, MM = Missing Value Source: NWS Daily Summary

Daily Weather History Graph

Daily Weather History Graph

Search for Another Location

Airport or City:

Trip Planner

Search our weather history database for the weather conditions in past years. The results will help you decide how hot, cold, wet, or windy it might be!

Date:

Astronomy

Mar. 04, 2013 Rise Set
Actual Time 6:20 AM MST 5:43 PM MST
Civil Twilight 5:52 AM MST 6:11 PM MST
Nautical Twilight 5:19 AM MST 6:44 PM MST
Astronomical Twilight 4:46 AM MST 7:17 PM MST
Moon 12:38 AM MST (3/4) 10:20 AM MST (3/4)
Length of Visible Light 12h 19m
Length of Day
11h 22m
Waning Gibbous, 51% of the Moon is Illuminated
Mar 4
Waning Gibbous
Mar 4
Last Quarter
Mar 11
New
Mar 19
First Quarter
Mar 27
Full

Hourly Weather History & Observations

Time (MST) Temp. Windchill Dew Point Humidity Pressure Visibility Wind Dir Wind Speed Gust Speed Precip Events Conditions
12:52 AM 36.0 °F 27.5 °F 21.9 °F 57% 29.71 in 10.0 mi NNW 12.7 mph 25.3 mph N/A   Overcast
1:52 AM 35.1 °F 24.1 °F 19.0 °F 52% 29.74 in 10.0 mi North 19.6 mph 26.5 mph N/A   Overcast
2:52 AM 34.0 °F 24.6 °F 19.0 °F 54% 29.74 in 10.0 mi NNW 13.8 mph 23.0 mph N/A   Mostly Cloudy
4:52 AM 30.9 °F 26.2 °F 19.0 °F 61% 29.78 in 10.0 mi West 4.6 mph - N/A   Overcast
5:52 AM 30.9 °F 24.3 °F 24.1 °F 76% 29.81 in 10.0 mi West 6.9 mph - N/A   Overcast
6:52 AM 30.9 °F - 21.0 °F 67% 29.83 in 10.0 mi Calm Calm - N/A   Overcast
7:52 AM 32.0 °F 21.2 °F 17.1 °F 54% 29.85 in 10.0 mi West 16.1 mph 24.2 mph N/A   Overcast
8:52 AM 33.1 °F 21.5 °F 10.9 °F 40% 29.89 in 10.0 mi West 19.6 mph 32.2 mph N/A   Overcast
9:52 AM 34.0 °F 23.4 °F 8.1 °F 34% 29.89 in 10.0 mi WNW 17.3 mph 26.5 mph N/A   Overcast
10:52 AM 37.0 °F 25.9 °F 8.1 °F 30% 29.88 in 8.0 mi WNW 23.0 mph 35.7 mph N/A   Partly Cloudy
11:52 AM 36.0 °F 24.2 °F 6.1 °F 29% 29.90 in 7.0 mi WNW 24.2 mph 39.1 mph N/A   Partly Cloudy
12:52 PM 34.0 °F 21.5 °F 7.0 °F 32% 29.91 in 9.0 mi WNW 24.2 mph 40.3 mph N/A   Clear
1:52 PM 33.1 °F 19.6 °F 3.9 °F 29% 29.94 in 7.0 mi WNW 27.6 mph 43.7 mph N/A   Clear
2:52 PM 30.9 °F 17.5 °F -0.0 °F 27% 30.00 in 6.0 mi WNW 24.2 mph 41.4 mph N/A   Haze
3:52 PM 28.9 °F 15.4 °F -0.9 °F 28% 30.05 in 10.0 mi NW 21.9 mph 39.1 mph N/A   Clear
4:52 PM 27.0 °F 13.2 °F 1.9 °F 34% 30.11 in 10.0 mi NNW 20.7 mph 35.7 mph N/A   Overcast
5:52 PM 26.1 °F 13.1 °F 3.0 °F 37% 30.17 in 10.0 mi NNW 17.3 mph 24.2 mph N/A   Overcast
6:52 PM 25.0 °F 12.2 °F 3.9 °F 41% 30.22 in 10.0 mi NNW 16.1 mph 28.8 mph N/A   Overcast
7:52 PM 24.1 °F 12.0 °F 6.1 °F 46% 30.23 in 10.0 mi WNW 13.8 mph - N/A   Overcast
8:52 PM 23.0 °F 9.6 °F 9.0 °F 55% 30.25 in 10.0 mi NW 16.1 mph 25.3 mph N/A   Overcast
9:52 PM 23.0 °F 11.7 °F 10.0 °F 58% 30.26 in 10.0 mi WNW 11.5 mph - N/A   Overcast
10:52 PM 23.0 °F 11.7 °F 9.0 °F 55% 30.27 in 10.0 mi NW 11.5 mph 21.9 mph N/A   Overcast